| time (UTC) | temp C | wind direction | speed KPH | gust KPH | rain 1hr cm | rain 24hr cm | rain mn cm | humidity % | barometer mb |
| 20260509095425 | 11 | 174 | 0.0 | 0.0 | 0.00 | 0.00 | 0.00 | 98 | 1012.2 |
| 20260509094921 | 11 | 180 | 0.0 | 0.0 | 0.00 | 0.00 | 0.00 | 98 | 1012.3 |
| 20260509094418 | 11 | 175 | 0.0 | 0.0 | 0.00 | 0.00 | 0.00 | 98 | 1012.1 |
| 20260509093916 | 11 | 173 | 0.0 | 0.0 | 0.00 | 0.00 | 0.00 | 98 | 1012.0 |
| 20260509093413 | 12 | 175 | 0.0 | 0.0 | 0.00 | 0.00 | 0.00 | 97 | 1012.3 |
| 20260509092911 | 12 | 173 | 0.0 | 0.0 | 0.00 | 0.00 | 0.00 | 97 | 1012.4 |
| 20260509092409 | 12 | 157 | 0.0 | 0.0 | 0.00 | 0.00 | 0.00 | 97 | 1012.3 |
| 20260509091907 | 12 | 169 | 0.0 | 0.0 | 0.00 | 0.00 | 0.00 | 97 | 1012.1 |
| 20260509091403 | 12 | 167 | 0.0 | 0.0 | 0.00 | 0.00 | 0.00 | 97 | 1012.3 |
| 20260509090901 | 12 | 173 | 0.0 | 0.0 | 0.00 | 0.00 | 0.00 | 96 | 1011.8 |
| 20260509090358 | 12 | 171 | 0.0 | 0.0 | 0.00 | 0.00 | 0.00 | 96 | 1011.7 |
| 20260509085855 | 12 | 175 | 0.0 | 0.0 | 0.00 | 0.00 | 0.00 | 96 | 1011.7 |
| 20260509085352 | 12 | 178 | 0.0 | 0.0 | 0.00 | 0.00 | 0.00 | 96 | 1012.2 |
| 20260509084849 | 12 | 174 | 0.0 | 0.0 | 0.00 | 0.00 | 0.00 | 96 | 1012.2 |
| 20260509084346 | 12 | 171 | 0.0 | 0.0 | 0.00 | 0.00 | 0.00 | 95 | 1012.3 |
| 20260509083844 | 12 | 173 | 0.0 | 0.0 | 0.00 | 0.00 | 0.00 | 95 | 1012.2 |
| 20260509083340 | 12 | 176 | 0.0 | 0.0 | 0.00 | 0.00 | 0.00 | 95 | 1012.4 |
| 20260509082837 | 12 | 173 | 0.0 | 0.0 | 0.00 | 0.00 | 0.00 | 94 | 1012.2 |
| 20260509082333 | 12 | 172 | 0.0 | 0.0 | 0.00 | 0.00 | 0.00 | 94 | 1012.1 |
| 20260509081831 | 12 | 175 | 0.0 | 0.0 | 0.00 | 0.00 | 0.00 | 93 | 1012.2 |
| 20260509081328 | 12 | 173 | 0.0 | 0.0 | 0.00 | 0.00 | 0.00 | 93 | 1012.4 |
| 20260509080826 | 12 | 179 | 0.0 | 0.0 | 0.00 | 0.00 | 0.00 | 93 | 1012.5 |
| 20260509080323 | 12 | 170 | 0.0 | 0.0 | 0.00 | 0.00 | 0.00 | 92 | 1012.6 |
| 20260509075822 | 12 | 172 | 0.0 | 0.0 | 0.00 | 0.00 | 0.00 | 91 | 1012.5 |
| 20260509075318 | 12 | 167 | 0.0 | 0.0 | 0.00 | 0.00 | 0.00 | 90 | 1012.5 |
| 20260509074815 | 12 | 173 | 0.0 | 0.0 | 0.00 | 0.00 | 0.00 | 89 | 1012.3 |
| 20260509074313 | 12 | 177 | 0.0 | 0.0 | 0.00 | 0.00 | 0.00 | 89 | 1012.5 |
| 20260509073809 | 13 | 169 | 0.0 | 0.0 | 0.00 | 0.00 | 0.00 | 87 | 1012.8 |
| 20260509073305 | 13 | 177 | 0.0 | 0.0 | 0.00 | 0.00 | 0.00 | 87 | 1012.8 |
| 20260509072802 | 13 | 175 | 0.0 | 0.0 | 0.00 | 0.00 | 0.00 | 86 | 1012.8 |
| 20260509072259 | 13 | 171 | 0.0 | 0.0 | 0.00 | 0.00 | 0.00 | 85 | 1013.1 |
| 20260509071755 | 13 | 170 | 0.0 | 0.0 | 0.00 | 0.00 | 0.00 | 84 | 1012.9 |
| 20260509071253 | 13 | 165 | 0.0 | 0.0 | 0.00 | 0.00 | 0.00 | 83 | 1013.0 |
| 20260509070749 | 13 | 179 | 0.0 | 0.0 | 0.00 | 0.00 | 0.00 | 83 | 1013.1 |
| 20260509070246 | 13 | 176 | 0.0 | 0.0 | 0.00 | 0.00 | 0.00 | 82 | 1012.9 |
| 20260509065743 | 13 | 175 | 0.0 | 0.0 | 0.00 | 0.00 | 0.00 | 81 | 1013.2 |
| 20260509065239 | 13 | 185 | 0.0 | 1.6 | 0.00 | 0.00 | 0.00 | 81 | 1013.4 |
| 20260509064735 | 13 | 176 | 0.0 | 1.6 | 0.00 | 0.00 | 0.00 | 81 | 1013.5 |
| 20260509064233 | 13 | 189 | 0.0 | 0.0 | 0.00 | 0.00 | 0.00 | 81 | 1013.4 |
| 20260509063730 | 13 | 173 | 0.0 | 0.0 | 0.00 | 0.00 | 0.00 | 80 | 1013.5 |
| 20260509063226 | 13 | 176 | 0.0 | 0.0 | 0.00 | 0.00 | 0.00 | 81 | 1013.3 |
| 20260509062724 | 13 | 173 | 0.0 | 0.0 | 0.00 | 0.00 | 0.00 | 84 | 1013.5 |
| 20260509062221 | 12 | 179 | 0.0 | 0.0 | 0.00 | 0.00 | 0.00 | 82 | 1013.7 |
| 20260509061718 | 12 | 172 | 0.0 | 0.0 | 0.00 | 0.00 | 0.00 | 83 | 1013.6 |
| 20260509061215 | 12 | 172 | 0.0 | 0.0 | 0.00 | 0.00 | 0.00 | 82 | 1013.5 |
| 20260509060712 | 12 | 178 | 0.0 | 0.0 | 0.00 | 0.00 | 0.00 | 82 | 1013.8 |
| 20260509060209 | 12 | 175 | 0.0 | 0.0 | 0.00 | 0.00 | 0.00 | 82 | 1014.0 |
| 20260509055704 | 13 | 180 | 0.0 | 0.0 | 0.00 | 0.00 | 0.00 | 82 | 1014.1 |
| 20260509055201 | 13 | 176 | 0.0 | 0.0 | 0.00 | 0.00 | 0.00 | 81 | 1014.1 |
| 20260509054657 | 13 | 172 | 0.0 | 0.0 | 0.00 | 0.00 | 0.00 | 82 | 1014.2 |
| 20260509054155 | 13 | 170 | 0.0 | 0.0 | 0.00 | 0.00 | 0.00 | 81 | 1014.4 |
| 20260509053653 | 13 | 178 | 0.0 | 0.0 | 0.00 | 0.00 | 0.00 | 80 | 1014.3 |
| 20260509053149 | 13 | 177 | 0.0 | 0.0 | 0.00 | 0.00 | 0.00 | 78 | 1014.3 |
| 20260509052647 | 13 | 173 | 0.0 | 0.0 | 0.00 | 0.00 | 0.00 | 79 | 1014.4 |
| 20260509052144 | 13 | 174 | 0.0 | 0.0 | 0.00 | 0.00 | 0.00 | 78 | 1014.4 |
| 20260509051642 | 13 | 176 | 0.0 | 0.0 | 0.00 | 0.00 | 0.00 | 76 | 1014.6 |
| 20260509051140 | 14 | 174 | 0.0 | 0.0 | 0.00 | 0.00 | 0.00 | 75 | 1014.2 |
| 20260509050637 | 14 | 173 | 0.0 | 0.0 | 0.00 | 0.00 | 0.00 | 75 | 1014.3 |
| 20260509050133 | 14 | 173 | 0.0 | 0.0 | 0.00 | 0.00 | 0.00 | 74 | 1014.4 |
| 20260509045631 | 15 | 177 | 0.0 | 0.0 | 0.00 | 0.00 | 0.00 | 73 | 1014.5 |
| 20260509045127 | 15 | 175 | 0.0 | 0.0 | 0.00 | 0.00 | 0.00 | 72 | 1014.4 |
| 20260509044624 | 15 | 176 | 0.0 | 0.0 | 0.00 | 0.00 | 0.00 | 72 | 1014.6 |
| 20260509044122 | 15 | 178 | 0.0 | 0.0 | 0.00 | 0.00 | 0.00 | 72 | 1014.8 |
| 20260509043618 | 15 | 180 | 0.0 | 0.0 | 0.00 | 0.00 | 0.00 | 71 | 1014.9 |
| 20260509043114 | 15 | 174 | 0.0 | 0.0 | 0.00 | 0.00 | 0.00 | 71 | 1014.9 |
| 20260509042610 | 15 | 170 | 0.0 | 0.0 | 0.00 | 0.00 | 0.00 | 72 | 1014.7 |
| 20260509042106 | 15 | 175 | 0.0 | 0.0 | 0.00 | 0.00 | 0.00 | 72 | 1014.8 |
| 20260509041603 | 15 | 174 | 0.0 | 1.6 | 0.00 | 0.00 | 0.00 | 71 | 1014.7 |
| 20260509041101 | 15 | 179 | 0.0 | 0.0 | 0.00 | 0.00 | 0.00 | 73 | 1014.9 |
| 20260509040559 | 15 | 178 | 0.0 | 1.6 | 0.00 | 0.00 | 0.00 | 73 | 1014.9 |
| 20260509040055 | 15 | 156 | 0.0 | 0.0 | 0.00 | 0.00 | 0.00 | 73 | 1015.0 |
| 20260509035552 | 15 | 178 | 0.0 | 0.0 | 0.00 | 0.00 | 0.00 | 75 | 1014.8 |
| 20260509035049 | 15 | 171 | 0.0 | 1.6 | 0.00 | 0.00 | 0.00 | 75 | 1014.9 |
| 20260509034547 | 15 | 173 | 0.0 | 0.0 | 0.00 | 0.00 | 0.00 | 77 | 1014.7 |
| 20260509034044 | 15 | 172 | 0.0 | 0.0 | 0.00 | 0.00 | 0.00 | 76 | 1014.5 |
| 20260509033541 | 15 | 175 | 0.0 | 0.0 | 0.00 | 0.00 | 0.00 | 75 | 1014.6 |
| 20260509033038 | 15 | 173 | 0.0 | 0.0 | 0.00 | 0.00 | 0.00 | 76 | 1014.6 |
| 20260509032536 | 15 | 175 | 0.0 | 0.0 | 0.00 | 0.00 | 0.00 | 76 | 1014.8 |
| 20260509032032 | 15 | 173 | 0.0 | 0.0 | 0.00 | 0.00 | 0.00 | 76 | 1014.8 |
| 20260509031530 | 15 | 175 | 0.0 | 0.0 | 0.00 | 0.00 | 0.00 | 77 | 1014.8 |
| 20260509031027 | 15 | 173 | 0.0 | 0.0 | 0.00 | 0.00 | 0.00 | 77 | 1014.8 |
| 20260509030525 | 15 | 173 | 0.0 | 0.0 | 0.00 | 0.00 | 0.00 | 77 | 1014.6 |
| 20260509030021 | 15 | 174 | 0.0 | 0.0 | 0.00 | 0.00 | 0.00 | 78 | 1014.8 |
| 20260509025517 | 15 | 173 | 0.0 | 0.0 | 0.00 | 0.00 | 0.00 | 76 | 1015.0 |
| 20260509025013 | 15 | 182 | 0.0 | 0.0 | 0.00 | 0.00 | 0.00 | 77 | 1015.0 |
| 20260509024509 | 15 | 173 | 0.0 | 0.0 | 0.00 | 0.00 | 0.00 | 79 | 1015.0 |
| 20260509024006 | 15 | 172 | 0.0 | 0.0 | 0.00 | 0.00 | 0.00 | 78 | 1014.9 |
| 20260509023503 | 15 | 179 | 0.0 | 0.0 | 0.00 | 0.00 | 0.00 | 76 | 1014.9 |
| 20260509023000 | 15 | 177 | 0.0 | 0.0 | 0.00 | 0.00 | 0.00 | 77 | 1015.1 |
| 20260509022457 | 15 | 176 | 0.0 | 0.0 | 0.00 | 0.00 | 0.00 | 78 | 1015.1 |
| 20260509021954 | 15 | 173 | 0.0 | 0.0 | 0.00 | 0.00 | 0.00 | 77 | 1015.0 |
| 20260509021451 | 15 | 172 | 0.0 | 0.0 | 0.00 | 0.00 | 0.00 | 78 | 1015.1 |
| 20260509020948 | 15 | 172 | 0.0 | 0.0 | 0.00 | 0.00 | 0.00 | 79 | 1015.1 |
| 20260509020447 | 15 | 173 | 0.0 | 0.0 | 0.00 | 0.00 | 0.00 | 78 | 1014.9 |
| 20260509015943 | 15 | 170 | 0.0 | 0.0 | 0.00 | 0.00 | 0.00 | 79 | 1014.9 |
| 20260509015442 | 15 | 173 | 0.0 | 0.0 | 0.00 | 0.00 | 0.00 | 77 | 1015.1 |
| 20260509014938 | 15 | 174 | 0.0 | 0.0 | 0.00 | 0.00 | 0.00 | 75 | 1014.9 |
| 20260509014435 | 15 | 172 | 0.0 | 0.0 | 0.00 | 0.00 | 0.00 | 75 | 1014.9 |
| 20260509013931 | 15 | 173 | 0.0 | 0.0 | 0.00 | 0.00 | 0.00 | 75 | 1014.7 |
| 20260509013428 | 15 | 179 | 0.0 | 0.0 | 0.00 | 0.00 | 0.00 | 74 | 1014.7 |
| 20260509012924 | 15 | 170 | 0.0 | 0.0 | 0.00 | 0.00 | 0.00 | 72 | 1014.6 |
| 20260509012421 | 15 | 174 | 0.0 | 0.0 | 0.00 | 0.00 | 0.00 | 73 | 1014.8 |
| 20260509011918 | 15 | 172 | 0.0 | 0.0 | 0.00 | 0.00 | 0.00 | 73 | 1014.7 |
| 20260509011415 | 16 | 176 | 0.0 | 0.0 | 0.00 | 0.00 | 0.00 | 72 | 1014.7 |
| 20260509010913 | 16 | 175 | 0.0 | 0.0 | 0.00 | 0.00 | 0.00 | 71 | 1014.6 |
| 20260509010411 | 16 | 172 | 0.0 | 0.0 | 0.00 | 0.00 | 0.00 | 71 | 1014.5 |
| 20260509005907 | 16 | 176 | 0.0 | 0.0 | 0.00 | 0.00 | 0.00 | 70 | 1014.6 |
| 20260509005405 | 16 | 179 | 0.0 | 0.0 | 0.00 | 0.00 | 0.00 | 70 | 1014.5 |
| 20260509004905 | 16 | 170 | 0.0 | 0.0 | 0.00 | 0.00 | 0.00 | 69 | 1014.3 |
| 20260509004402 | 16 | 173 | 0.0 | 0.0 | 0.00 | 0.00 | 0.00 | 67 | 1014.5 |
| 20260509003900 | 16 | 172 | 0.0 | 0.0 | 0.00 | 0.00 | 0.00 | 67 | 1014.3 |
| 20260509003357 | 17 | 172 | 0.0 | 0.0 | 0.00 | 0.00 | 0.00 | 66 | 1014.3 |
| 20260509002854 | 17 | 172 | 0.0 | 0.0 | 0.00 | 0.00 | 0.00 | 66 | 1014.3 |
| 20260509002352 | 17 | 175 | 0.0 | 0.0 | 0.00 | 0.00 | 0.00 | 64 | 1014.2 |
| 20260509001849 | 17 | 171 | 0.0 | 0.0 | 0.00 | 0.00 | 0.00 | 63 | 1014.1 |
| 20260509001345 | 17 | 173 | 0.0 | 0.0 | 0.00 | 0.00 | 0.00 | 61 | 1014.2 |
| 20260509000842 | 17 | 171 | 0.0 | 0.0 | 0.00 | 0.00 | 0.00 | 60 | 1014.4 |
| 20260509000340 | 18 | 173 | 0.0 | 0.0 | 0.00 | 0.00 | 0.00 | 60 | 1014.4 |
| 20260508235836 | 18 | 170 | 0.0 | 0.0 | 0.00 | 0.00 | 0.00 | 61 | 1014.4 |
| 20260508235333 | 18 | 170 | 0.0 | 0.0 | 0.00 | 0.00 | 0.00 | 59 | 1014.0 |
| 20260508234831 | 18 | 176 | 0.0 | 0.0 | 0.00 | 0.00 | 0.00 | 58 | 1014.0 |
| 20260508234327 | 18 | 170 | 0.0 | 0.0 | 0.00 | 0.00 | 0.00 | 57 | 1014.0 |
| 20260508233825 | 18 | 170 | 0.0 | 0.0 | 0.00 | 0.00 | 0.00 | 56 | 1013.9 |
| 20260508233324 | 18 | 170 | 0.0 | 0.0 | 0.00 | 0.00 | 0.00 | 55 | 1013.7 |
| 20260508232821 | 19 | 176 | 0.0 | 0.0 | 0.00 | 0.00 | 0.00 | 54 | 1014.0 |
| 20260508232317 | 19 | 170 | 0.0 | 0.0 | 0.00 | 0.00 | 0.00 | 55 | 1013.7 |
| 20260508231816 | 19 | 172 | 0.0 | 0.0 | 0.00 | 0.00 | 0.00 | 55 | 1013.9 |
| 20260508231311 | 19 | 170 | 0.0 | 0.0 | 0.00 | 0.00 | 0.00 | 55 | 1013.9 |
| 20260508230808 | 20 | 170 | 0.0 | 0.0 | 0.00 | 0.00 | 0.00 | 56 | 1014.1 |
| 20260508230305 | 20 | 170 | 0.0 | 0.0 | 0.00 | 0.00 | 0.00 | 52 | 1014.0 |
| 20260508225803 | 20 | 174 | 0.0 | 0.0 | 0.00 | 0.00 | 0.00 | 50 | 1013.9 |
| 20260508225259 | 20 | 171 | 0.0 | 1.6 | 0.00 | 0.00 | 0.00 | 51 | 1014.3 |
| 20260508224757 | 20 | 169 | 0.0 | 0.0 | 0.00 | 0.00 | 0.00 | 50 | 1014.0 |
| 20260508224254 | 20 | 174 | 0.0 | 0.0 | 0.00 | 0.00 | 0.00 | 50 | 1014.1 |
| 20260508223752 | 20 | 169 | 0.0 | 0.0 | 0.00 | 0.00 | 0.00 | 52 | 1014.1 |
| 20260508223249 | 20 | 168 | 0.0 | 0.0 | 0.00 | 0.00 | 0.00 | 49 | 1014.2 |
| 20260508222746 | 20 | 173 | 1.6 | 1.6 | 0.00 | 0.00 | 0.00 | 49 | 1014.2 |
| 20260508222243 | 20 | 174 | 0.0 | 0.0 | 0.00 | 0.00 | 0.00 | 47 | 1014.0 |
| 20260508221740 | 21 | 167 | 0.0 | 0.0 | 0.00 | 0.00 | 0.00 | 49 | 1013.8 |
| 20260508221236 | 21 | 195 | 0.0 | 0.0 | 0.00 | 0.00 | 0.00 | 47 | 1013.9 |
| 20260508220732 | 21 | 178 | 3.2 | 3.2 | 0.00 | 0.00 | 0.00 | 47 | 1014.2 |
| 20260508220229 | 21 | 175 | 0.0 | 0.0 | 0.00 | 0.00 | 0.00 | 44 | 1014.2 |
| 20260508215725 | 21 | 166 | 0.0 | 0.0 | 0.00 | 0.00 | 0.00 | 45 | 1014.0 |
| 20260508215221 | 21 | 163 | 0.0 | 1.6 | 0.00 | 0.00 | 0.00 | 45 | 1014.1 |
| 20260508214719 | 21 | 175 | 1.6 | 1.6 | 0.00 | 0.00 | 0.00 | 46 | 1013.9 |
| 20260508214216 | 21 | 174 | 0.0 | 1.6 | 0.00 | 0.00 | 0.00 | 43 | 1014.1 |
| 20260508213712 | 21 | 163 | 1.6 | 1.6 | 0.00 | 0.00 | 0.00 | 43 | 1013.8 |
| 20260508213209 | 22 | 165 | 1.6 | 1.6 | 0.00 | 0.00 | 0.00 | 48 | 1013.8 |
| 20260508212706 | 22 | 182 | 1.6 | 3.2 | 0.00 | 0.00 | 0.00 | 43 | 1013.8 |
| 20260508212202 | 22 | 166 | 0.0 | 1.6 | 0.00 | 0.00 | 0.00 | 45 | 1013.8 |
| 20260508211657 | 22 | 167 | 0.0 | 0.0 | 0.00 | 0.00 | 0.00 | 45 | 1013.8 |
| 20260508211154 | 22 | 155 | 0.0 | 0.0 | 0.00 | 0.00 | 0.00 | 47 | 1013.9 |
| 20260508210651 | 21 | 169 | 0.0 | 0.0 | 0.00 | 0.00 | 0.00 | 44 | 1014.1 |
| 20260508210148 | 21 | 166 | 0.0 | 0.0 | 0.00 | 0.00 | 0.00 | 43 | 1014.2 |
| 20260508205645 | 22 | 171 | 0.0 | 1.6 | 0.00 | 0.00 | 0.00 | 45 | 1014.2 |
| 20260508205141 | 22 | 152 | 3.2 | 3.2 | 0.00 | 0.00 | 0.00 | 39 | 1014.3 |
| 20260508204638 | 22 | 162 | 0.0 | 0.0 | 0.00 | 0.00 | 0.00 | 43 | 1014.2 |
| 20260508204134 | 22 | 126 | 4.8 | 4.8 | 0.00 | 0.00 | 0.00 | 39 | 1014.3 |
| 20260508203630 | 23 | 156 | 0.0 | 0.0 | 0.00 | 0.00 | 0.00 | 44 | 1014.2 |
| 20260508203126 | 23 | 144 | 0.0 | 0.0 | 0.00 | 0.00 | 0.00 | 41 | 1014.0 |
| 20260508202623 | 22 | 156 | 0.0 | 1.6 | 0.00 | 0.00 | 0.00 | 38 | 1014.2 |
| 20260508202120 | 22 | 161 | 0.0 | 0.0 | 0.00 | 0.00 | 0.00 | 39 | 1014.3 |
| 20260508201617 | 22 | 141 | 0.0 | 0.0 | 0.00 | 0.00 | 0.00 | 43 | 1014.4 |
| 20260508201113 | 22 | 173 | 3.2 | 3.2 | 0.00 | 0.00 | 0.00 | 39 | 1014.6 |
| 20260508200610 | 23 | 174 | 1.6 | 1.6 | 0.00 | 0.00 | 0.00 | 40 | 1014.4 |
| 20260508200106 | 22 | 152 | 1.6 | 1.6 | 0.00 | 0.00 | 0.00 | 41 | 1014.7 |
| 20260508195603 | 23 | 190 | 3.2 | 3.2 | 0.00 | 0.00 | 0.00 | 38 | 1014.6 |
| 20260508195059 | 22 | 174 | 0.0 | 0.0 | 0.00 | 0.00 | 0.00 | 41 | 1014.6 |
| 20260508194556 | 22 | 142 | 3.2 | 3.2 | 0.00 | 0.00 | 0.00 | 38 | 1014.8 |
| 20260508194054 | 22 | 174 | 1.6 | 3.2 | 0.00 | 0.00 | 0.00 | 38 | 1015.1 |
| 20260508193549 | 22 | 114 | 1.6 | 1.6 | 0.00 | 0.00 | 0.00 | 37 | 1015.0 |
| 20260508193047 | 22 | 160 | 0.0 | 1.6 | 0.00 | 0.00 | 0.00 | 39 | 1015.3 |
| 20260508192543 | 21 | 163 | 1.6 | 1.6 | 0.00 | 0.00 | 0.00 | 39 | 1015.3 |
| 20260508192040 | 21 | 131 | 4.8 | 8.0 | 0.00 | 0.00 | 0.00 | 39 | 1015.3 |
| 20260508191537 | 22 | 176 | 0.0 | 1.6 | 0.00 | 0.00 | 0.00 | 39 | 1015.3 |
| 20260508191033 | 22 | 115 | 0.0 | 0.0 | 0.00 | 0.00 | 0.00 | 43 | 1015.2 |
| 20260508190531 | 22 | 307 | 1.6 | 1.6 | 0.00 | 0.00 | 0.00 | 37 | 1015.5 |
| 20260508190027 | 21 | 173 | 0.0 | 0.0 | 0.00 | 0.00 | 0.00 | 40 | 1015.4 |
| 20260508185525 | 21 | 203 | 4.8 | 4.8 | 0.00 | 0.00 | 0.00 | 39 | 1015.6 |
| 20260508185022 | 21 | 199 | 1.6 | 3.2 | 0.00 | 0.00 | 0.00 | 40 | 1015.4 |
| 20260508184519 | 21 | 184 | 0.0 | 1.6 | 0.00 | 0.00 | 0.00 | 38 | 1015.9 |
| 20260508184016 | 21 | 133 | 1.6 | 1.6 | 0.00 | 0.00 | 0.00 | 39 | 1015.7 |
| 20260508183513 | 22 | 205 | 4.8 | 4.8 | 0.00 | 0.00 | 0.00 | 41 | 1015.7 |
| 20260508183008 | 21 | 154 | 1.6 | 1.6 | 0.00 | 0.00 | 0.00 | 40 | 1015.9 |
| 20260508182505 | 21 | 150 | 4.8 | 4.8 | 0.00 | 0.00 | 0.00 | 39 | 1015.9 |
| 20260508182001 | 21 | 164 | 1.6 | 3.2 | 0.00 | 0.00 | 0.00 | 46 | 1015.9 |
| 20260508181457 | 21 | 191 | 4.8 | 4.8 | 0.00 | 0.00 | 0.00 | 40 | 1016.0 |
| 20260508180955 | 21 | 162 | 3.2 | 3.2 | 0.00 | 0.00 | 0.00 | 42 | 1016.3 |
| 20260508180451 | 21 | 136 | 1.6 | 1.6 | 0.00 | 0.00 | 0.00 | 41 | 1016.1 |
| 20260508175948 | 21 | 173 | 1.6 | 1.6 | 0.00 | 0.00 | 0.00 | 41 | 1016.3 |
| 20260508175444 | 21 | 216 | 4.8 | 4.8 | 0.00 | 0.00 | 0.00 | 38 | 1016.3 |
| 20260508174942 | 21 | 196 | 1.6 | 1.6 | 0.00 | 0.00 | 0.00 | 41 | 1016.3 |
| 20260508174439 | 21 | 96 | 1.6 | 3.2 | 0.00 | 0.00 | 0.00 | 44 | 1016.3 |
| 20260508173936 | 21 | 147 | 1.6 | 3.2 | 0.00 | 0.00 | 0.00 | 42 | 1016.5 |
| 20260508173433 | 21 | 153 | 0.0 | 0.0 | 0.00 | 0.00 | 0.00 | 43 | 1016.6 |
| 20260508172929 | 20 | 160 | 1.6 | 1.6 | 0.00 | 0.00 | 0.00 | 43 | 1016.5 |
| 20260508172426 | 20 | 136 | 0.0 | 0.0 | 0.00 | 0.00 | 0.00 | 42 | 1016.5 |
| 20260508171923 | 20 | 175 | 0.0 | 0.0 | 0.00 | 0.00 | 0.00 | 45 | 1016.6 |
| 20260508171419 | 20 | 189 | 0.0 | 1.6 | 0.00 | 0.00 | 0.00 | 45 | 1016.7 |
| 20260508170916 | 19 | 142 | 1.6 | 1.6 | 0.00 | 0.00 | 0.00 | 50 | 1016.8 |
| 20260508170413 | 20 | 171 | 1.6 | 3.2 | 0.00 | 0.00 | 0.00 | 43 | 1017.0 |
| 20260508165910 | 20 | 174 | 1.6 | 3.2 | 0.00 | 0.00 | 0.00 | 43 | 1017.3 |
| 20260508165408 | 20 | 179 | 1.6 | 1.6 | 0.00 | 0.00 | 0.00 | 43 | 1017.2 |
| 20260508164903 | 21 | 185 | 0.0 | 0.0 | 0.00 | 0.00 | 0.00 | 43 | 1017.2 |
| 20260508164401 | 21 | 159 | 1.6 | 1.6 | 0.00 | 0.00 | 0.00 | 43 | 1017.3 |
| 20260508163858 | 20 | 142 | 1.6 | 3.2 | 0.00 | 0.00 | 0.00 | 44 | 1017.5 |
| 20260508163356 | 19 | 180 | 0.0 | 0.0 | 0.00 | 0.00 | 0.00 | 49 | 1017.5 |
| 20260508162851 | 19 | 90 | 3.2 | 4.8 | 0.00 | 0.00 | 0.00 | 45 | 1017.3 |
| 20260508162349 | 19 | 191 | 4.8 | 4.8 | 0.00 | 0.00 | 0.00 | 47 | 1017.5 |
| 20260508161846 | 18 | 78 | 6.4 | 8.0 | 0.00 | 0.00 | 0.00 | 47 | 1017.5 |
| 20260508161343 | 19 | 185 | 0.0 | 0.0 | 0.00 | 0.00 | 0.00 | 45 | 1017.8 |
| 20260508160840 | 19 | 193 | 1.6 | 1.6 | 0.00 | 0.00 | 0.00 | 48 | 1017.7 |
| 20260508160339 | 19 | 130 | 3.2 | 3.2 | 0.00 | 0.00 | 0.00 | 48 | 1017.8 |
| 20260508155835 | 18 | 174 | 0.0 | 0.0 | 0.00 | 0.00 | 0.00 | 48 | 1017.9 |
| 20260508155332 | 18 | 167 | 1.6 | 1.6 | 0.00 | 0.00 | 0.00 | 51 | 1018.1 |
| 20260508154828 | 18 | 82 | 4.8 | 4.8 | 0.00 | 0.00 | 0.00 | 51 | 1017.8 |
| 20260508154326 | 18 | 176 | 0.0 | 0.0 | 0.00 | 0.00 | 0.00 | 52 | 1018.1 |
| 20260508153822 | 18 | 189 | 1.6 | 1.6 | 0.00 | 0.00 | 0.00 | 49 | 1018.2 |
| 20260508153321 | 18 | 224 | 1.6 | 3.2 | 0.00 | 0.00 | 0.00 | 51 | 1018.1 |
| 20260508152815 | 18 | 179 | 1.6 | 1.6 | 0.00 | 0.00 | 0.00 | 49 | 1018.1 |
| 20260508152312 | 18 | 183 | 1.6 | 3.2 | 0.00 | 0.00 | 0.00 | 50 | 1018.0 |
| 20260508151808 | 18 | 180 | 0.0 | 1.6 | 0.00 | 0.00 | 0.00 | 52 | 1018.1 |
| 20260508151305 | 18 | 269 | 3.2 | 3.2 | 0.00 | 0.00 | 0.00 | 48 | 1018.1 |
| 20260508150802 | 17 | 111 | 4.8 | 8.0 | 0.00 | 0.00 | 0.00 | 51 | 1018.2 |
| 20260508150259 | 17 | 183 | 1.6 | 1.6 | 0.00 | 0.00 | 0.00 | 51 | 1018.1 |
| 20260508145755 | 17 | 130 | 1.6 | 3.2 | 0.00 | 0.00 | 0.00 | 54 | 1018.1 |
| 20260508145251 | 17 | 129 | 1.6 | 1.6 | 0.00 | 0.00 | 0.00 | 50 | 1018.2 |
| 20260508144748 | 17 | 143 | 1.6 | 3.2 | 0.00 | 0.00 | 0.00 | 53 | 1018.3 |
| 20260508144246 | 17 | 184 | 0.0 | 1.6 | 0.00 | 0.00 | 0.00 | 54 | 1018.4 |
| 20260508143743 | 17 | 193 | 1.6 | 1.6 | 0.00 | 0.00 | 0.00 | 52 | 1018.2 |
| 20260508143240 | 16 | 216 | 4.8 | 4.8 | 0.00 | 0.00 | 0.00 | 51 | 1018.5 |
| 20260508142736 | 16 | 183 | 3.2 | 3.2 | 0.00 | 0.00 | 0.00 | 55 | 1018.3 |
| 20260508142233 | 16 | 106 | 3.2 | 3.2 | 0.00 | 0.00 | 0.00 | 51 | 1018.0 |
| 20260508141730 | 16 | 196 | 0.0 | 0.0 | 0.00 | 0.00 | 0.00 | 61 | 1018.4 |
| 20260508141228 | 16 | 138 | 1.6 | 3.2 | 0.00 | 0.00 | 0.00 | 65 | 1018.4 |
| 20260508140725 | 16 | 181 | 1.6 | 1.6 | 0.00 | 0.00 | 0.00 | 61 | 1018.3 |
| 20260508140221 | 16 | 177 | 0.0 | 1.6 | 0.00 | 0.00 | 0.00 | 62 | 1018.2 |
| 20260508135718 | 16 | 171 | 3.2 | 3.2 | 0.00 | 0.00 | 0.00 | 64 | 1018.1 |
| 20260508135213 | 16 | 198 | 3.2 | 3.2 | 0.00 | 0.00 | 0.00 | 67 | 1018.1 |
| 20260508134709 | 15 | 189 | 0.0 | 0.0 | 0.00 | 0.00 | 0.00 | 76 | 1018.1 |
| 20260508134207 | 15 | 180 | 1.6 | 1.6 | 0.00 | 0.00 | 0.00 | 71 | 1018.1 |
| 20260508133703 | 15 | 202 | 1.6 | 3.2 | 0.00 | 0.00 | 0.00 | 76 | 1018.2 |
| 20260508133201 | 15 | 177 | 0.0 | 1.6 | 0.00 | 0.00 | 0.00 | 78 | 1018.1 |
| 20260508132659 | 15 | 227 | 0.0 | 1.6 | 0.00 | 0.00 | 0.00 | 80 | 1018.2 |
| 20260508132156 | 15 | 180 | 1.6 | 1.6 | 0.00 | 0.00 | 0.00 | 76 | 1018.4 |
| 20260508131651 | 13 | 181 | 0.0 | 0.0 | 0.00 | 0.00 | 0.00 | 81 | 1018.2 |
| 20260508131148 | 13 | 202 | 1.6 | 3.2 | 0.00 | 0.00 | 0.00 | 82 | 1018.1 |
| 20260508130644 | 12 | 200 | 1.6 | 1.6 | 0.00 | 0.00 | 0.00 | 87 | 1018.3 |
| 20260508130142 | 12 | 194 | 1.6 | 3.2 | 0.00 | 0.00 | 0.00 | 94 | 1018.1 |
| 20260508125637 | 11 | 177 | 0.0 | 0.0 | 0.00 | 0.00 | 0.00 | 99 | 1017.8 |
| 20260508125134 | 11 | 170 | 0.0 | 0.0 | 0.00 | 0.00 | 0.00 | 99 | 1018.0 |
| 20260508124632 | 11 | 181 | 0.0 | 0.0 | 0.00 | 0.00 | 0.00 | 99 | 1018.1 |
| 20260508124129 | 11 | 180 | 0.0 | 0.0 | 0.00 | 0.00 | 0.00 | 99 | 1017.7 |
| 20260508123627 | 11 | 179 | 0.0 | 0.0 | 0.00 | 0.00 | 0.00 | 99 | 1018.0 |
| 20260508123125 | 11 | 173 | 0.0 | 0.0 | 0.00 | 0.00 | 0.00 | 99 | 1017.6 |
| 20260508122620 | 11 | 176 | 0.0 | 0.0 | 0.00 | 0.00 | 0.00 | 99 | 1017.7 |
| 20260508122118 | 11 | 179 | 0.0 | 0.0 | 0.00 | 0.00 | 0.00 | 99 | 1017.5 |
| 20260508121616 | 11 | 158 | 0.0 | 0.0 | 0.00 | 0.00 | 0.00 | 99 | 1017.5 |
| 20260508121114 | 10 | 177 | 0.0 | 0.0 | 0.00 | 0.00 | 0.00 | 99 | 1017.5 |
| 20260508120611 | 11 | 178 | 0.0 | 0.0 | 0.00 | 0.00 | 0.00 | 99 | 1017.7 |
| 20260508120109 | 11 | 172 | 0.0 | 0.0 | 0.00 | 0.00 | 0.00 | 99 | 1017.7 |
| 20260508115606 | 11 | 173 | 0.0 | 0.0 | 0.00 | 0.00 | 0.00 | 99 | 1017.5 |
| 20260508115103 | 11 | 173 | 0.0 | 0.0 | 0.00 | 0.00 | 0.00 | 99 | 1017.3 |
| 20260508114600 | 10 | 172 | 0.0 | 0.0 | 0.00 | 0.00 | 0.00 | 99 | 1017.1 |
| 20260508114056 | 10 | 172 | 0.0 | 0.0 | 0.00 | 0.00 | 0.00 | 99 | 1017.2 |
| 20260508113554 | 10 | 171 | 0.0 | 0.0 | 0.00 | 0.00 | 0.00 | 99 | 1016.9 |
| 20260508113052 | 9 | 170 | 0.0 | 0.0 | 0.00 | 0.00 | 0.00 | 99 | 1016.9 |
| 20260508112547 | 9 | 170 | 0.0 | 0.0 | 0.00 | 0.00 | 0.00 | 99 | 1016.7 |
| 20260508112045 | 8 | 171 | 0.0 | 0.0 | 0.00 | 0.00 | 0.00 | 99 | 1016.6 |
| 20260508111542 | 8 | 169 | 0.0 | 0.0 | 0.00 | 0.00 | 0.00 | 99 | 1016.6 |
| 20260508111038 | 8 | 168 | 0.0 | 0.0 | 0.00 | 0.00 | 0.00 | 99 | 1016.5 |
| 20260508110537 | 8 | 168 | 0.0 | 0.0 | 0.00 | 0.00 | 0.00 | 99 | 1016.5 |
| 20260508110032 | 8 | 167 | 0.0 | 0.0 | 0.00 | 0.00 | 0.00 | 99 | 1016.4 |
| 20260508105527 | 8 | 169 | 0.0 | 0.0 | 0.00 | 0.00 | 0.00 | 99 | 1016.4 |
| 20260508105025 | 8 | 170 | 0.0 | 0.0 | 0.00 | 0.00 | 0.00 | 99 | 1016.4 |
| 20260508104523 | 8 | 170 | 0.0 | 0.0 | 0.00 | 0.00 | 0.00 | 99 | 1016.0 |
| 20260508104019 | 8 | 170 | 0.0 | 0.0 | 0.00 | 0.00 | 0.00 | 99 | 1015.9 |
| 20260508103516 | 8 | 170 | 0.0 | 0.0 | 0.00 | 0.00 | 0.00 | 99 | 1015.8 |
| 20260508103013 | 8 | 171 | 0.0 | 0.0 | 0.00 | 0.00 | 0.00 | 99 | 1015.7 |
| 20260508102511 | 8 | 171 | 0.0 | 0.0 | 0.00 | 0.00 | 0.00 | 99 | 1015.6 |
| 20260508102008 | 8 | 174 | 0.0 | 0.0 | 0.00 | 0.00 | 0.00 | 99 | 1015.8 |
| 20260508101506 | 8 | 172 | 0.0 | 0.0 | 0.00 | 0.00 | 0.00 | 99 | 1015.5 |
| 20260508101002 | 8 | 174 | 0.0 | 0.0 | 0.00 | 0.00 | 0.00 | 99 | 1015.6 |
| 20260508100501 | 8 | 170 | 0.0 | 0.0 | 0.00 | 0.00 | 0.00 | 99 | 1015.6 |
| 20260508095957 | 9 | 165 | 0.0 | 0.0 | 0.00 | 0.00 | 0.00 | 99 | 1015.6 |